Regional Weather Roundup
Issued by NWS Cleveland, OH

Current Version | Previous Version | Text Only | Print | Product List | Glossary On
Versions: 1 2 3 4 5 6 7 8 9 10 11 12 13 14 15 16 17 18 19 20 21 22 23 24 25 26 27 28 29 30 31 32 33 34 35 36 37 38 39 40 41 42 43 44 45 46 47 48 49 50
000 ASUS41 KCLE 221510 RWRCLE OHIO REGIONAL WEATHER ROUNDUP NATIONAL WEATHER SERVICE WILMINGTON, OH 1100 AM EDT TUE JUL 22 2014 NOTE: "FAIR" INDICATES FEW OR NO CLOUDS BELOW 12,000 FEET WITH NO SIGNIFICANT WEATHER AND/OR OBSTRUCTIONS TO VISIBILITY. OHZ001>008-015>018-024>027-034-035-043-044-221600- NORTHWEST OHIO CITY SKY/WX TMP DP RH WIND PRES REMARKS DEFIANCE SUNNY 83 65 54 S8 30.10F FINDLAY SUNNY 83 66 56 S6 30.10F TOLEDO EXPRESS SUNNY 84 64 50 SW8 30.09F TOLEDO METCALF SUNNY 83 62 49 SW9 30.10F LIMA SUNNY 83 67 58 SW6 30.12F $$ OHZ009>014-019>023-028>033-038-089-221600- NORTHEAST OHIO CITY SKY/WX TMP DP RH WIND PRES REMARKS CLE-HOPKINS MOSUNNY 83 69 62 SW9 30.13F CLE-LAKEFRONT SUNNY 81 68 64 W3 30.09F CUY CO. ARPT MOSUNNY 84 70 61 NW8 30.13F LORAIN-ELYRIA SUNNY 85 69 58 SW6 30.12F ASHTABULA SUNNY 81 68 64 SW6 30.14S AKRON-CANTON SUNNY 82 66 58 W6 30.14F WOOSTER SUNNY 81 70 69 SW7 30.15F MANSFIELD MOSUNNY 83 70 64 SW8 30.15F YOUNGSTOWN MOSUNNY 81 68 64 VRB6 30.14F $$ OHZ042-051>053-060>062-070>072-077>081-221600- SOUTHWEST OHIO CITY SKY/WX TMP DP RH WIND PRES REMARKS CINC-COVINGTON MOSUNNY 84 70 62 SW6 30.12F CINC-LUNKEN SUNNY 83 72 69 CALM 30.11F HAMILTON MOSUNNY 83 71 67 CALM 30.12F DAYTON MOSUNNY 82 71 69 S6 30.14F WRIGHT-PAT AFB SUNNY 82 73 74 VRB2 30.12F DAYTON GENERAL SUNNY 82 72 71 S7 30.12F WILMINGTON SUNNY 83 71 67 CALM 30.13F $$ OHZ036-037-039>041-045>050-054>059-063>069-073>076-082>088-221600- CENTRAL AND SOUTHEAST OHIO CITY SKY/WX TMP DP RH WIND PRES REMARKS COLUMBUS MOSUNNY 84 69 60 CALM 30.12F OSU AIRPORT MOSUNNY 83 69 62 W3 30.13F BOLTON FIELD SUNNY 81 72 74 CALM 30.14S RICKENBACK AFB SUNNY 84 67 57 S5 30.13S NEWARK SUNNY 83 70 64 CALM 30.13S MARION SUNNY 82 68 62 CALM 30.13F LANCASTER SUNNY 83 71 67 VRB5 30.13F ZANESVILLE SUNNY 79 71 76 SW3 30.14F NEW PHILLY SUNNY 81 72 74 CALM 30.14F $$

USA.gov is the U.S. government's official web portal to all federal, state and local government web resources and services.